Вернуться в каталог

TELSTAR 12V

АктивенСвязьGEO
NORAD 41036·PAYLOAD·🇨🇦 Canada

Запущен Nov 24, 2015 с Tanegashima Space Center

Loading…

TLE

СвежийSource: CelesTrak SupGP

Эпоха: Sep 14, 2026, 04:59 UTC

1 41036C 15068A   26257.20833333 -.00000029  00000+0  00000+0 0  2578
2 41036   0.0126 116.6486 0002158  53.9025 242.6425  1.00271490    17

Отслеживайте TELSTAR 12V в реальном времени с AllMySat

Download on the App Store